Change the Weather History Date:

Sunday, March 3, 2013

  Actual Average Record
Temperature  
Mean Temperature 16 °F -  
Max Temperature 21 °F 30 °F 48 °F (1974)
Min Temperature 10 °F 11 °F -27 °F (2003)
Degree Days  
Heating Degree Days 50    
Moisture  
Dew Point 12 °F    
Average Humidity 82    
Maximum Humidity 93    
Minimum Humidity 68    
Precipitation  
Precipitation 0.00 in - - ()
Sea Level Pressure  
Sea Level Pressure 30.07 in    
Wind  
Wind Speed 6 mph (NNW)    
Max Wind Speed 15 mph    
Max Gust Speed 20 mph    
Visibility 10 miles    
Events Snow    
Averages and records for this station are not official NWS values.
T = Trace of Precipitation, MM = Missing Value Source: NWS Daily Summary

Daily Weather History Graph

Daily Weather History Graph

Search for Another Location

Airport or City:

Trip Planner

Search our weather history database for the weather conditions in past years. The results will help you decide how hot, cold, wet, or windy it might be!

Date:

Astronomy

Mar. 03, 2013 Rise Set
Actual Time 7:16 AM EST 6:31 PM EST
Civil Twilight 6:46 AM EST 7:01 PM EST
Nautical Twilight 6:12 AM EST 7:36 PM EST
Astronomical Twilight 5:37 AM EST 8:11 PM EST
Moon 12:30 AM EST (3/3) 10:08 AM EST (3/3)
Length of Visible Light 12h 14m
Length of Day
11h 14m
Waning Gibbous, 64% of the Moon is Illuminated
Mar 3
Waning Gibbous
Mar 4
Last Quarter
Mar 11
New
Mar 19
First Quarter
Mar 27
Full

Hourly Weather History & Observations

Time (EST) Temp. Windchill Dew Point Humidity Pressure Visibility Wind Dir Wind Speed Gust Speed Precip Events Conditions
12:15 AM 14.0 °F 6.5 °F 6.8 °F 73% 30.09 in 10.0 mi NNW 4.6 mph - N/A   Clear
12:34 AM 14.0 °F 5.1 °F 6.8 °F 73% 30.09 in 10.0 mi NNW 5.8 mph - N/A   Clear
12:54 AM 14.0 °F 5.1 °F 6.8 °F 73% 30.09 in 10.0 mi NNW 5.8 mph - N/A   Clear
1:15 AM 12.2 °F 2.9 °F 6.8 °F 79% 30.09 in 10.0 mi NNW 5.8 mph - N/A   Clear
1:34 AM 12.2 °F 4.3 °F 6.8 °F 79% 30.09 in 10.0 mi NNW 4.6 mph - N/A   Clear
1:54 AM 12.2 °F 2.9 °F 6.8 °F 79% 30.09 in 10.0 mi North 5.8 mph - N/A   Clear
2:14 AM 12.2 °F 4.3 °F 8.6 °F 85% 30.09 in 10.0 mi North 4.6 mph - N/A   Clear
2:34 AM 12.2 °F 6.1 °F 8.6 °F 85% 30.09 in 10.0 mi North 3.5 mph - N/A   Clear
2:55 AM 10.4 °F - 6.8 °F 85% 30.08 in 10.0 mi Calm Calm - N/A   Clear
3:14 AM 10.4 °F 4.0 °F 6.8 °F 85% 30.08 in 10.0 mi NNW 3.5 mph - N/A   Clear
3:35 AM 10.4 °F - 6.8 °F 85% 30.07 in 10.0 mi Calm Calm - N/A   Clear
4:14 AM 10.4 °F 4.0 °F 8.6 °F 92% 30.07 in 10.0 mi NNW 3.5 mph - N/A   Clear
4:35 AM 10.4 °F 4.0 °F 8.6 °F 92% 30.07 in 10.0 mi NNW 3.5 mph - N/A   Scattered Clouds
4:55 AM 12.2 °F 4.3 °F 8.6 °F 85% 30.06 in 10.0 mi NNW 4.6 mph - N/A   Overcast
5:14 AM 12.2 °F 4.3 °F 8.6 °F 85% 30.07 in 10.0 mi NW 4.6 mph - N/A   Overcast
5:35 AM 12.2 °F 4.3 °F 10.4 °F 92% 30.07 in 10.0 mi NNW 4.6 mph - N/A   Overcast
5:54 AM 12.2 °F 6.1 °F 10.4 °F 92% 30.07 in 10.0 mi NNW 3.5 mph - N/A Snow Light Snow
6:14 AM 12.2 °F 1.7 °F 10.4 °F 92% 30.08 in 10.0 mi North 6.9 mph - N/A Snow Light Snow
6:35 AM 12.2 °F 2.9 °F 10.4 °F 92% 30.07 in 10.0 mi North 5.8 mph - N/A   Overcast
6:54 AM 14.0 °F 5.1 °F 10.4 °F 86% 30.07 in 10.0 mi North 5.8 mph - N/A   Overcast
7:14 AM 14.0 °F 3.9 °F 10.4 °F 86% 30.08 in 10.0 mi North 6.9 mph - N/A   Overcast
7:35 AM 14.0 °F 5.1 °F 10.4 °F 86% 30.08 in 10.0 mi North 5.8 mph - N/A Snow Light Snow
7:54 AM 14.0 °F 6.5 °F 10.4 °F 86% 30.08 in 10.0 mi North 4.6 mph - N/A   Overcast
8:15 AM 15.8 °F 7.2 °F 12.2 °F 86% 30.09 in 10.0 mi North 5.8 mph - N/A   Overcast
8:35 AM 15.8 °F 6.1 °F 12.2 °F 86% 30.09 in 10.0 mi North 6.9 mph - N/A   Overcast
8:54 AM 17.6 °F 7.3 °F 12.2 °F 79% 30.09 in 10.0 mi North 8.1 mph - N/A   Overcast
9:15 AM 17.6 °F 5.7 °F 12.2 °F 79% 30.09 in 10.0 mi North 10.4 mph - N/A   Overcast
9:35 AM 17.6 °F 5.7 °F 14.0 °F 86% 30.08 in 10.0 mi NNW 10.4 mph - N/A   Overcast
9:54 AM 17.6 °F 6.4 °F 12.2 °F 79% 30.08 in 10.0 mi North 9.2 mph - N/A   Overcast
10:15 AM 17.6 °F 7.3 °F 12.2 °F 79% 30.08 in 10.0 mi North 8.1 mph - N/A   Scattered Clouds
10:34 AM 17.6 °F 7.3 °F 12.2 °F 79% 30.08 in 10.0 mi NNW 8.1 mph - N/A   Mostly Cloudy
10:54 AM 17.6 °F 5.7 °F 12.2 °F 79% 30.08 in 10.0 mi NW 10.4 mph 16.1 mph N/A Snow Light Snow
11:15 AM 17.6 °F 6.4 °F 12.2 °F 79% 30.07 in 10.0 mi North 9.2 mph 16.1 mph N/A   Mostly Cloudy
11:34 AM 19.4 °F 7.2 °F 12.2 °F 74% 30.07 in 10.0 mi NW 11.5 mph 16.1 mph N/A   Mostly Cloudy
11:54 AM 19.4 °F 7.9 °F 12.2 °F 74% 30.07 in 10.0 mi NNW 10.4 mph 18.4 mph N/A   Mostly Cloudy
12:15 PM 19.4 °F 7.2 °F 12.2 °F 74% 30.07 in 10.0 mi NW 11.5 mph 17.3 mph N/A   Mostly Cloudy
12:34 PM 21.2 °F 10.1 °F 12.2 °F 68% 30.07 in 10.0 mi NW 10.4 mph 16.1 mph N/A   Scattered Clouds
12:55 PM 21.2 °F 9.5 °F 12.2 °F 68% 30.06 in 10.0 mi NNW 11.5 mph 16.1 mph N/A   Scattered Clouds
1:15 PM 21.2 °F 11.7 °F 14.0 °F 74% 30.05 in 10.0 mi NW 8.1 mph 17.3 mph N/A   Mostly Cloudy
1:34 PM 21.2 °F 7.8 °F 12.2 °F 68% 30.05 in 10.0 mi NW 15.0 mph 18.4 mph N/A   Mostly Cloudy
1:55 PM 21.2 °F 8.9 °F 12.2 °F 68% 30.05 in 10.0 mi NW 12.7 mph - N/A   Mostly Cloudy
2:15 PM 21.2 °F 9.5 °F 12.2 °F 68% 30.05 in 10.0 mi NNW 11.5 mph - N/A   Mostly Cloudy
2:34 PM 21.2 °F 9.5 °F 14.0 °F 74% 30.05 in 10.0 mi NNW 11.5 mph - N/A   Mostly Cloudy
2:55 PM 21.2 °F 10.9 °F 14.0 °F 74% 30.05 in 10.0 mi NW 9.2 mph 17.3 mph N/A   Overcast
3:14 PM 21.2 °F 10.9 °F 14.0 °F 74% 30.05 in 10.0 mi NNW 9.2 mph - N/A   Overcast
3:35 PM 19.4 °F 6.0 °F 14.0 °F 80% 30.05 in 10.0 mi NW 13.8 mph 19.6 mph N/A   Overcast
3:54 PM 19.4 °F 8.6 °F 15.8 °F 86% 30.05 in 10.0 mi NNW 9.2 mph 17.3 mph N/A   Overcast
4:15 PM 19.4 °F 8.6 °F 15.8 °F 86% 30.05 in 10.0 mi North 9.2 mph 17.3 mph N/A   Overcast
4:54 PM 17.6 °F 5.0 °F 15.8 °F 93% 30.06 in 10.0 mi North 11.5 mph 16.1 mph N/A Snow Light Snow
5:15 PM 17.6 °F 5.0 °F 15.8 °F 93% 30.06 in 10.0 mi NW 11.5 mph 18.4 mph N/A   Overcast
5:35 PM 17.6 °F 5.7 °F 15.8 °F 93% 30.07 in 10.0 mi NNW 10.4 mph 19.6 mph N/A   Overcast
5:54 PM 17.6 °F 8.2 °F 15.8 °F 93% 30.07 in 10.0 mi NNW 6.9 mph - N/A   Overcast
6:15 PM 17.6 °F 5.0 °F 15.8 °F 93% 30.07 in 10.0 mi NW 11.5 mph 17.3 mph N/A   Overcast
6:34 PM 19.4 °F 7.9 °F 15.8 °F 86% 30.07 in 10.0 mi NW 10.4 mph 18.4 mph N/A   Overcast
6:54 PM 17.6 °F 6.4 °F 14.0 °F 86% 30.08 in 10.0 mi NNW 9.2 mph - N/A   Overcast
7:15 PM 19.4 °F 10.4 °F 14.0 °F 80% 30.08 in 10.0 mi NNW 6.9 mph - N/A Snow Light Snow
7:34 PM 19.4 °F 11.5 °F 14.0 °F 80% 30.07 in 10.0 mi NNW 5.8 mph - N/A Snow Light Snow
7:55 PM 19.4 °F 12.8 °F 14.0 °F 80% 30.07 in 10.0 mi NNW 4.6 mph - N/A   Overcast
8:15 PM 19.4 °F 11.5 °F 14.0 °F 80% 30.07 in 10.0 mi NW 5.8 mph - N/A   Overcast
8:34 PM 17.6 °F 10.7 °F 12.2 °F 79% 30.07 in 10.0 mi WNW 4.6 mph - N/A Snow Light Snow
8:55 PM 15.8 °F 7.2 °F 10.4 °F 79% 30.07 in 10.0 mi WNW 5.8 mph - N/A   Scattered Clouds
9:15 PM 15.8 °F 7.2 °F 12.2 °F 86% 30.07 in 10.0 mi WNW 5.8 mph - N/A   Clear
9:34 PM 14.0 °F 6.5 °F 10.4 °F 86% 30.07 in 10.0 mi WNW 4.6 mph - N/A   Clear
9:55 PM 14.0 °F 3.9 °F 10.4 °F 86% 30.07 in 10.0 mi WNW 6.9 mph - N/A   Clear
10:14 PM 15.8 °F 6.1 °F 12.2 °F 86% 30.08 in 10.0 mi WNW 6.9 mph - N/A   Clear
10:34 PM 17.6 °F 8.2 °F 12.2 °F 79% 30.07 in 10.0 mi NW 6.9 mph - N/A   Clear
10:55 PM 15.8 °F 6.1 °F 12.2 °F 86% 30.07 in 10.0 mi NW 6.9 mph - N/A   Clear
11:14 PM 15.8 °F 6.1 °F 12.2 °F 86% 30.07 in 10.0 mi NNW 6.9 mph - N/A   Clear
11:35 PM 15.8 °F 8.6 °F 12.2 °F 86% 30.07 in 10.0 mi NNW 4.6 mph - N/A   Clear
11:55 PM 15.8 °F 8.6 °F 10.4 °F 79% 30.07 in 10.0 mi NNW 4.6 mph - N/A   Clear